Wind_Speed
17 17 16 15 14 14 13 13 13 12 12 12 12 13 13 13 13 13 13 14 13 13 13 11 10 8 6 5 5 5 5 5 4 4 5 6 7 7 7 7 6 5 3 2 2 2 2 3 4 6 7 7 6 7 7 6 7 5 2 3 3 3 3 5 7 5 0 1 7 10 12 9 5 7 7 5 7 7 6 9 10 11 12 10 8 6 7 13
18 18 17 15 14 14 13 13 12 12 12 12 12 12 12 12 12 13 13 14 14 13 12 11 10 8 7 6 5 5 5 5 4 4 5 6 7 7 6 6 5 4 3 2 2 3 3 3 4 6 7 6 5 6 6 4 4 2 1 3 4 2 2 2 6 5 1 0 7 10 12 10 5 7 9 6 5 7 7 8 11 11 13 13 11 9 8 9
18 18 17 16 15 14 14 13 12 12 11 11 11 12 12 12 12 12 13 13 13 13 12 11 10 8 7 6 5 5 5 4 4 4 5 5 6 6 6 5 4 4 3 2 3 4 4 4 5 6 7 5 4 6 4 3 2 1 1 5 2 2 1 2 6 6 2 1 5 8 10 8 4 8 9 6 4 6 9 9 10 12 15 15 13 13 12 10
17 17 16 15 15 14 13 13 12 12 11 11 11 11 12 12 12 12 13 13 13 13 12 11 10 8 7 6 5 5 4 3 4 5 5 6 6 6 5 5 4 4 3 3 3 4 5 5 5 7 7 5 4 5 3 2 2 2 2 3 1 2 1 3 7 7 1 1 4 6 8 7 6 10 10 6 5 6 11 13 12 12 13 14 13 13 14 13
16 16 15 15 14 14 13 13 12 12 11 12 11 12 12 12 12 12 13 13 12 12 12 11 10 8 7 6 6 6 4 3 5 6 6 6 6 6 5 6 5 4 4 3 4 4 6 6 6 7 5 4 3 3 2 2 4 3 0 2 3 2 1 3 7 7 4 1 4 7 6 6 6 9 10 9 8 6 6 10 11 11 11 12 13 12 13 14
16 15 15 14 14 13 13 13 13 12 12 12 12 12 12 12 13 13 13 13 12 12 12 11 10 8 7 6 6 7 5 1 4 6 6 7 7 7 7 6 5 5 4 3 4 5 7 7 6 6 4 3 2 2 3 4 4 2 1 2 2 2 3 4 6 6 6 4 5 6 6 6 7 7 9 14 14 9 6 7 7 7 8 10 12 14 13 13
15 15 14 14 13 13 13 13 12 12 12 12 13 12 12 12 13 13 13 13 12 12 12 11 9 8 7 7 6 7 4 1 3 6 7 8 9 9 8 7 5 4 4 4 4 6 8 8 6 7 5 3 2 3 4 4 2 1 2 4 3 3 3 3 4 5 7 6 5 6 7 6 7 6 6 15 22 18 14 12 9 9 8 8 10 12 14 13
15 15 14 13 12 12 12 12 12 12 12 13 13 13 13 13 13 13 13 13 12 12 12 11 9 8 7 7 6 5 3 1 3 6 8 10 12 11 8 7 5 4 5 4 4 7 9 8 8 8 4 3 4 4 4 4 1 0 3 5 3 3 2 4 5 6 6 5 6 6 6 5 7 6 7 17 23 20 20 18 16 16 15 14 13 12 13 14
16 15 14 13 13 12 12 12 12 12 12 12 12 12 13 13 13 13 13 13 12 12 12 11 8 8 7 7 6 4 3 3 4 8 10 13 13 11 8 6 5 5 4 5 6 8 7 8 10 7 4 5 6 5 3 2 1 1 4 5 4 4 4 6 5 5 4 4 6 6 4 3 6 5 10 21 24 21 21 20 20 19 19 19 18 17 16 16
15 15 14 13 13 12 12 12 12 11 11 12 12 12 12 13 13 13 13 13 12 12 12 10 8 8 7 7 6 3 4 4 6 10 13 14 12 10 7 5 5 5 4 5 7 7 7 8 9 8 7 9 7 4 2 1 3 6 7 7 5 5 5 4 4 5 4 4 5 5 2 2 3 2 8 13 14 16 18 19 20 20 21 21 20 20 20 19
14 14 13 13 13 13 12 12 11 11 11 11 11 12 12 13 13 13 13 13 13 13 12 10 9 8 7 7 6 3 4 5 7 12 14 14 11 8 6 4 4 4 4 6 7 7 7 8 9 9 7 7 7 6 5 4 6 7 9 7 6 5 4 3 2 3 2 3 3 3 2 2 2 4 10 9 8 9 10 13 15 16 18 19 20 20 21 22
14 13 13 13 13 12 12 12 11 11 11 11 11 12 12 12 12 13 13 13 13 13 12 10 9 9 7 6 6 4 4 5 9 13 14 13 10 8 5 3 2 4 5 5 7 8 8 9 9 6 6 9 7 4 6 6 6 6 6 3 3 3 2 2 1 1 2 2 3 2 4 6 7 11 15 13 12 12 11 13 14 15 16 16 18 19 21 21
13 13 13 12 12 12 12 11 11 11 11 11 11 12 12 12 12 13 13 13 13 12 11 10 9 8 7 5 6 7 5 5 10 13 14 12 10 8 5 3 2 4 5 5 7 9 9 9 7 7 12 10 4 5 7 6 4 5 2 1 2 3 3 2 1 1 3 3 4 3 5 6 9 14 15 13 15 14 15 17 17 18 19 18 19 19 21 21
12 12 12 12 12 11 11 11 11 11 11 11 11 11 12 12 12 12 13 12 12 11 10 10 9 7 6 4 5 8 7 6 9 13 13 12 10 7 5 3 3 5 6 5 7 8 8 8 8 10 11 8 8 9 7 4 2 2 0 1 1 3 3 4 2 1 3 4 6 4 5 5 5 7 9 12 14 14 15 16 17 19 19 19 19 19 21 21
11 11 12 12 12 11 11 10 10 10 10 10 10 11 11 11 11 12 12 11 11 10 9 9 8 7 6 4 5 8 9 8 10 12 13 12 10 8 5 5 6 6 6 6 7 9 10 9 9 9 9 10 12 8 3 2 2 2 2 3 1 3 2 3 2 1 1 2 6 6 4 6 7 4 4 7 8 8 13 15 16 18 18 19 20 20 22 21
10 10 11 11 11 11 10 10 10 9 9 9 9 9 10 10 10 10 10 10 10 9 9 8 8 7 4 4 6 7 10 10 10 13 14 13 11 8 6 7 7 7 7 7 7 8 9 8 9 10 9 9 7 3 3 2 1 1 2 2 2 3 1 1 2 2 3 0 5 6 4 4 3 2 2 4 4 5 10 15 17 17 17 18 19 20 21 21
8 9 9 9 10 10 10 10 9 9 8 8 9 9 9 9 9 9 9 9 9 9 9 7 8 7 3 4 6 7 11 13 12 13 14 14 11 8 8 9 8 8 7 7 7 7 6 6 8 8 5 2 1 3 4 3 4 3 1 2 1 2 2 1 2 2 2 1 4 6 5 9 8 6 8 9 10 11 13 18 22 22 22 21 20 21 22 22
4 7 8 9 9 8 9 9 9 9 8 8 8 8 9 8 8 8 8 9 9 9 8 7 8 5 4 7 8 8 12 13 13 14 14 14 12 10 9 9 9 8 7 6 5 4 4 5 4 3 2 2 3 5 5 3 4 4 4 3 1 2 3 3 1 2 1 2 5 6 8 13 14 14 17 18 17 16 17 21 25 27 29 28 27 27 27 27
1 4 6 8 9 9 8 9 9 8 9 9 9 10 9 8 8 7 8 10 10 7 4 9 12 3 2 11 12 8 10 12 13 14 15 15 14 12 10 9 9 8 6 5 3 3 3 3 2 3 4 6 7 7 5 1 2 3 3 2 2 3 3 3 1 2 1 3 6 9 11 13 14 14 18 19 17 17 20 22 25 30 32 32 32 33 33 34
2 1 2 5 7 8 8 9 9 9 9 9 10 11 10 9 6 4 9 11 12 7 2 10 15 4 4 7 12 10 8 11 14 15 16 16 15 14 11 10 9 6 3 2 2 3 1 2 5 6 5 7 7 4 3 4 3 4 3 1 2 3 3 2 1 2 1 4 6 7 10 13 14 14 17 19 17 17 19 20 25 31 35 36 36 36 36 37
3 3 2 1 5 7 8 9 9 10 10 10 12 11 8 9 5 3 9 11 13 12 5 7 13 8 3 4 8 11 9 10 13 16 16 16 17 14 10 10 7 4 2 3 4 3 1 5 7 4 1 3 4 5 6 5 3 2 2 2 2 4 4 1 2 2 1 3 3 2 9 14 14 14 17 18 15 17 20 20 23 27 30 35 38 39 40 39
5 3 4 4 1 5 6 9 10 11 11 11 13 10 7 10 7 5 7 5 9 14 11 9 11 11 9 4 6 11 10 7 9 15 16 18 18 12 9 9 5 3 3 4 4 2 3 6 3 3 6 7 6 4 4 3 2 2 2 2 3 3 2 0 2 2 1 3 3 4 9 15 15 15 17 19 18 22 26 25 26 26 26 32 36 38 39 39
6 4 3 5 4 1 4 6 9 11 12 12 12 10 7 9 8 5 4 2 4 10 13 14 13 13 13 9 8 10 10 6 7 15 18 19 17 12 10 8 4 4 5 6 6 4 4 4 1 5 7 8 5 3 4 3 2 3 2 3 3 1 1 2 1 2 1 1 3 5 7 13 15 14 14 17 18 22 26 26 28 30 31 37 39 38 37 39
8 6 4 3 5 5 1 3 5 9 12 13 13 11 9 9 7 5 3 1 1 5 10 14 14 16 16 12 10 11 10 7 7 13 19 19 16 10 8 6 4 5 6 7 7 6 3 1 3 5 4 5 5 5 6 5 4 4 4 6 5 2 2 2 2 0 2 1 2 5 7 9 8 8 8 7 8 14 20 20 24 28 30 33 34 33 33 35
12 10 6 5 6 6 3 0 2 5 10 13 14 13 10 9 7 4 4 1 2 3 6 10 11 14 17 15 12 11 9 8 8 10 17 21 17 10 5 5 4 5 6 5 3 5 2 4 7 7 3 2 5 5 6 6 4 3 5 9 8 3 2 1 2 1 3 1 1 3 5 5 3 8 10 5 5 11 12 13 21 27 28 28 31 33 33 33
12 13 11 9 7 5 4 1 2 2 6 10 13 13 12 10 8 6 4 1 2 3 3 7 8 8 13 13 13 12 5 7 10 11 17 21 18 11 6 5 1 1 5 6 2 3 1 4 5 6 6 4 3 4 5 6 5 2 2 5 6 2 2 2 1 1 3 1 1 1 4 6 7 13 12 5 8 12 9 10 19 25 27 28 30 31 30 28
13 13 14 13 10 6 4 3 2 2 3 6 11 13 12 11 10 7 4 1 4 4 6 7 8 9 10 12 18 14 3 6 10 11 17 20 17 11 6 5 2 2 5 4 2 1 3 5 3 5 7 5 4 4 4 8 6 1 1 1 3 4 4 4 3 3 2 2 1 1 2 5 8 11 6 1 7 11 9 11 16 19 23 24 22 19 17 16
15 12 12 14 13 9 6 6 5 3 3 2 8 14 13 13 11 7 3 3 2 5 5 6 8 10 12 16 19 10 4 9 7 9 18 19 15 9 5 6 5 4 5 5 5 1 3 5 7 7 6 5 5 0 4 11 5 1 1 1 3 3 2 3 2 2 0 3 3 4 3 5 7 8 2 2 5 10 10 13 13 12 12 13 11 8 7 7
17 16 13 13 14 13 11 10 9 5 2 2 7 15 15 14 10 4 1 3 2 4 3 7 9 9 13 16 12 5 6 5 1 8 17 15 13 7 3 6 6 6 4 2 3 1 2 2 5 6 5 4 3 4 1 7 3 3 4 5 6 5 5 3 0 1 1 4 4 6 8 6 7 7 5 1 3 9 10 9 9 7 7 8 6 5 6 5
15 17 17 15 15 15 14 14 13 10 4 1 8 17 17 12 7 4 3 3 2 2 3 6 7 8 14 13 4 1 3 2 5 12 12 8 10 6 5 8 6 5 3 2 1 2 2 2 1 3 2 2 6 6 4 1 5 9 7 5 6 4 3 2 1 1 2 5 1 5 7 5 6 4 6 3 2 5 6 5 5 5 6 5 4 6 7 7
11 14 16 16 17 16 15 15 14 13 11 5 9 17 14 6 2 5 5 0 1 2 4 4 3 7 15 11 4 3 2 2 7 12 8 5 7 6 7 7 4 3 2 2 2 1 1 1 1 2 3 6 7 6 6 4 5 5 3 3 3 1 1 1 1 1 4 4 1 2 1 4 7 4 2 1 3 4 5 5 4 4 6 5 5 7 8 7
10 11 14 16 17 16 16 15 12 13 15 10 11 14 9 3 1 5 4 3 1 4 4 2 1 6 11 6 3 5 3 2 6 7 4 5 6 7 7 6 6 4 4 6 4 1 2 3 1 2 5 7 6 5 6 2 1 2 3 6 4 2 2 3 2 2 4 3 1 3 2 4 10 7 6 10 12 9 9 11 12 10 14 14 8 7 7 7
11 10 12 16 17 17 16 15 13 14 14 12 11 6 1 4 6 7 7 3 1 0 3 3 2 4 9 6 4 5 2 2 6 4 1 3 5 7 5 3 4 2 2 5 4 3 3 1 3 4 3 8 9 6 5 4 4 6 7 7 6 4 3 5 2 1 4 1 2 3 1 4 9 7 9 15 14 10 10 19 25 25 26 26 20 17 16 14
13 12 12 14 17 17 16 14 14 13 11 11 10 4 1 7 8 9 10 4 2 2 3 3 5 5 6 4 2 5 2 2 6 4 3 4 4 6 6 5 5 1 2 3 3 6 6 4 7 8 5 11 13 7 5 7 7 7 3 3 5 5 5 5 3 2 3 1 2 1 1 5 5 2 2 8 11 13 13 15 22 27 31 33 32 31 30 26
13 13 13 13 15 17 16 15 14 11 10 12 8 3 5 8 6 7 7 2 2 2 2 2 5 5 4 1 2 2 2 1 4 3 4 6 5 7 8 7 9 5 3 4 3 4 5 4 4 3 4 13 13 5 4 6 5 3 1 1 4 3 2 1 1 0 1 1 2 3 4 6 5 5 7 10 11 13 14 12 13 21 28 30 34 35 33 28
12 12 13 13 14 16 15 15 13 10 12 15 8 2 7 5 2 3 2 2 3 5 6 3 3 4 4 2 1 2 1 1 4 4 3 4 4 5 6 6 11 12 9 7 2 2 3 2 2 2 1 7 5 2 5 3 3 4 3 5 3 1 2 2 1 2 2 5 4 3 6 8 6 9 10 12 14 13 11 10 11 18 21 21 27 31 28 23
11 11 12 13 14 15 15 16 13 12 16 15 5 5 6 4 4 3 0 3 3 4 7 5 3 4 5 4 4 5 3 1 4 5 4 3 3 6 7 5 9 15 15 10 3 2 3 1 1 1 2 2 1 2 3 1 1 4 4 6 2 2 1 2 3 1 2 6 4 4 10 10 6 6 2 3 9 12 11 10 13 19 20 21 26 26 19 16
10 10 12 13 13 14 16 16 14 16 18 11 4 7 6 5 9 7 3 4 3 2 3 5 3 3 5 6 4 6 6 4 6 5 4 4 4 8 10 6 8 17 20 13 3 0 3 3 0 1 1 1 2 2 3 0 1 1 1 3 2 2 3 3 4 4 4 6 4 5 8 8 8 8 4 4 6 7 9 9 11 14 17 22 27 23 17 18
7 7 9 12 15 15 16 18 19 20 14 6 6 8 5 5 8 12 12 7 3 3 1 3 1 1 2 4 2 4 7 6 7 7 5 5 4 7 12 10 8 14 19 15 5 1 3 5 2 1 1 1 2 5 7 5 2 3 0 2 0 2 3 3 3 3 5 6 4 4 4 5 8 7 6 10 10 8 10 9 7 10 15 20 25 24 20 18
5 5 5 10 16 17 18 20 21 17 8 5 6 4 3 4 6 15 20 11 4 4 4 3 3 1 1 1 1 2 5 4 6 6 4 6 6 4 9 11 5 4 12 15 7 1 3 4 4 1 1 2 5 7 9 10 8 5 5 6 4 2 0 2 3 1 3 5 4 5 6 7 6 4 6 10 9 8 10 8 5 9 15 17 18 18 13 10
8 5 4 11 17 21 24 20 16 10 4 5 7 4 3 4 5 13 19 15 8 5 4 5 6 6 4 3 1 1 2 1 3 4 3 6 8 5 7 12 8 7 7 9 7 6 4 4 4 4 3 6 5 2 3 6 8 8 8 10 11 8 5 4 6 3 1 3 2 3 6 9 6 2 5 8 5 4 6 6 6 10 13 12 11 10 12 14
9 3 5 12 17 26 28 16 9 8 5 7 7 5 5 5 6 10 14 14 10 4 3 3 5 7 7 8 6 3 3 2 2 3 3 5 10 7 4 10 14 15 11 4 5 6 4 2 4 4 4 4 1 2 2 3 3 3 4 7 9 8 8 8 6 3 2 2 0 1 4 10 8 2 2 3 1 3 4 5 9 13 14 11 8 11 15 16
9 5 8 13 19 30 26 9 7 9 7 10 7 4 7 5 5 9 11 12 8 4 4 3 3 6 6 7 9 7 5 4 4 5 5 5 8 8 3 7 13 14 8 1 2 5 4 1 4 4 1 1 2 1 1 2 1 4 7 5 4 5 6 4 1 1 3 4 3 3 4 9 9 2 2 4 4 6 9 10 13 15 17 16 11 15 17 17
9 9 10 12 20 30 21 6 7 10 8 9 8 7 9 7 5 9 10 10 8 4 5 4 3 5 4 3 6 8 8 6 6 8 9 6 4 3 4 10 12 9 7 3 3 9 7 2 5 5 4 3 2 3 3 2 4 6 6 4 6 7 4 2 2 1 4 6 9 8 6 9 9 2 4 3 5 7 11 15 16 17 21 21 17 18 19 18
7 7 10 13 19 22 14 4 4 8 10 10 9 11 11 6 8 12 11 10 9 6 5 6 7 7 5 4 3 4 8 8 6 7 7 6 3 1 3 12 14 12 11 5 3 9 7 3 5 7 7 7 7 6 5 5 5 3 4 6 10 13 11 6 4 5 6 8 10 9 8 10 12 5 4 4 5 6 12 17 18 20 24 24 20 21 23 22
7 5 6 10 14 14 11 7 4 4 9 12 8 9 13 9 7 12 13 11 11 11 7 5 7 8 7 7 6 4 6 7 5 4 5 4 2 2 1 7 15 17 13 5 5 7 2 2 6 9 10 10 11 9 3 6 7 8 10 12 12 14 15 10 6 7 10 10 10 10 11 15 20 16 11 9 7 7 9 13 17 22 25 24 23 24 26 26
8 4 5 6 7 8 7 8 8 5 6 11 8 6 13 14 7 7 12 12 12 14 9 3 6 8 8 10 10 8 9 8 6 7 9 7 4 1 1 1 9 15 10 5 7 7 3 3 7 10 13 14 15 15 5 8 10 13 14 15 13 13 14 13 11 13 12 10 11 13 16 19 20 19 20 17 10 7 6 10 17 22 24 25 26 26 27 28
10 5 9 9 4 5 7 9 12 10 6 8 8 6 10 15 12 9 10 10 11 14 9 5 9 12 12 12 10 8 9 9 8 9 11 9 7 4 2 1 5 11 9 5 6 6 2 5 9 10 13 14 17 18 9 6 9 10 12 14 14 14 15 16 17 18 16 13 13 16 20 20 17 18 23 20 12 9 12 17 22 22 22 25 28 27 26 28
12 5 10 12 4 2 6 9 11 12 10 7 6 7 10 13 15 12 8 7 8 12 12 10 11 14 14 13 11 9 10 9 9 10 9 8 9 6 5 5 6 7 7 5 4 5 4 5 10 11 12 15 18 19 13 9 8 8 9 10 9 12 17 19 19 21 23 21 16 17 22 20 17 19 21 19 17 16 18 20 21 21 23 26 27 27 27 30
17 10 8 8 4 2 3 6 9 9 10 9 6 6 8 11 14 11 8 9 9 9 13 15 15 13 13 14 14 12 12 10 10 10 9 8 8 7 5 6 5 3 3 3 1 3 5 5 6 6 8 14 18 19 18 12 7 8 8 7 8 11 15 19 19 18 20 19 17 18 20 19 18 16 14 19 21 15 13 15 19 24 29 31 30 29 30 31
21 16 10 5 5 6 4 3 6 6 7 10 10 8 9 11 12 7 6 11 12 9 11 17 17 12 11 14 16 16 16 15 14 15 14 12 12 11 8 8 8 5 2 2 1 2 4 3 1 2 6 11 15 18 17 10 4 6 10 11 13 14 13 13 13 12 14 16 16 17 16 16 15 9 9 19 18 10 12 17 22 29 33 33 34 33 33 33
23 19 17 10 5 9 8 3 4 6 7 9 10 8 7 8 10 8 5 8 13 15 13 14 12 9 11 15 16 17 19 19 19 21 19 16 15 14 12 12 13 9 5 4 3 4 6 4 3 4 6 10 15 15 11 7 4 7 14 19 21 19 14 10 9 13 18 17 15 14 13 14 17 12 12 16 12 9 14 19 23 29 32 33 36 37 38 38
Wind_Direction
191 192 194 195 195 195 195 196 198 198 200 200 203 204 202 201 198 195 194 192 191 188 187 185 183 178 176 179 176 172 167 162 158 152 151 160 157 147 149 149 155 160 163 172 163 154 131 131 129 134 143 140 142 143 137 129 135 152 179 217 211 192 188 182 184 176 72 153 161 171 186 194 178 181 193 199 201 215 231 225 228 224 218 212 195 189 184 194
195 195 193 194 197 197 197 199 200 201 204 204 207 208 205 204 201 198 195 193 191 189 189 187 184 180 179 183 182 179 173 170 168 165 160 167 167 156 153 153 160 169 174 193 195 179 160 145 135 140 143 131 130 142 139 119 126 136 140 220 221 179 156 183 182 166 15 280 157 169 187 199 193 172 186 204 192 201 227 228 229 233 228 224 218 215 214 207
198 198 194 194 198 199 200 201 202 204 206 209 211 210 209 206 203 201 197 195 192 190 190 188 186 184 182 186 186 181 178 180 185 186 180 176 176 166 162 164 168 177 183 191 189 183 172 153 136 142 144 128 123 142 137 114 138 105 190 230 219 141 123 179 182 159 55 14 153 166 182 195 202 176 188 213 193 198 227 227 221 230 234 234 230 228 231 228
201 201 198 198 199 201 204 204 206 207 209 212 212 213 211 208 205 202 199 196 193 192 190 188 188 186 185 188 187 177 174 191 199 198 189 184 180 173 170 169 170 175 178 177 177 174 164 149 133 139 139 121 111 132 120 94 159 138 205 260 52 145 168 151 182 179 126 31 156 159 170 193 203 191 192 201 207 219 231 233 231 235 240 245 243 237 236 236
204 205 204 205 204 205 207 208 209 211 212 213 214 213 211 208 205 201 199 197 193 193 191 188 189 188 187 190 188 172 166 181 193 198 189 182 181 175 167 165 168 163 160 169 174 166 158 148 137 139 131 117 122 134 103 87 134 134 131 359 58 161 109 135 179 196 211 210 161 164 174 197 193 200 205 204 225 235 227 232 236 241 246 249 245 239 238 237
204 208 209 211 211 211 212 213 214 216 216 216 214 212 210 207 204 201 199 196 195 194 191 189 188 189 188 190 190 179 181 176 176 190 185 179 176 168 161 159 160 155 155 157 163 163 157 154 143 135 114 104 119 104 111 126 146 159 97 90 116 97 62 140 175 200 205 193 177 181 197 204 191 215 220 217 232 239 231 232 228 236 244 246 242 238 239 238
204 209 213 215 216 218 218 219 221 222 221 218 214 211 209 205 202 200 198 197 196 194 191 189 189 190 189 191 188 184 203 272 164 180 175 174 168 157 154 153 154 149 152 153 163 166 157 158 149 134 116 101 121 95 104 127 163 252 125 144 147 82 68 138 169 187 184 195 203 198 206 202 203 228 238 233 238 239 240 244 239 246 250 249 246 242 244 245
200 208 214 217 219 221 221 224 227 227 225 220 214 209 207 204 200 198 198 197 196 195 191 188 189 190 192 191 186 181 197 212 176 173 165 165 158 153 150 145 147 141 149 156 158 161 155 159 157 146 116 93 133 121 117 127 124 305 127 150 151 96 106 124 136 159 168 199 200 196 205 202 216 242 266 251 247 245 246 249 250 252 254 251 250 249 249 249
196 202 208 212 216 218 221 225 226 227 226 222 216 209 205 201 197 197 197 197 195 194 190 188 190 191 195 192 186 183 190 194 177 167 163 162 156 155 150 137 140 136 143 157 154 155 155 165 169 168 141 118 128 118 133 175 126 81 121 140 144 116 115 121 127 140 156 177 175 189 202 212 229 255 265 254 254 255 251 250 251 251 252 252 251 251 251 252
192 197 202 206 210 214 219 223 223 222 219 218 214 207 203 199 196 194 194 193 191 190 187 189 191 191 196 191 187 186 194 194 173 169 167 162 160 161 151 133 128 128 140 156 157 154 155 167 167 158 139 126 121 97 85 188 106 107 118 112 100 108 111 116 134 133 142 153 175 212 219 225 220 234 256 249 250 254 249 248 250 250 252 252 251 251 251 252
186 193 197 200 204 209 213 217 217 214 210 209 206 202 199 195 193 191 189 187 184 183 185 189 190 191 193 187 185 180 189 192 172 171 171 167 167 166 159 141 117 125 147 154 153 154 153 158 156 147 134 133 126 91 79 96 102 114 129 114 76 87 103 91 130 138 154 154 175 228 257 227 156 213 243 238 236 245 243 244 246 249 251 252 251 250 250 250
182 189 193 196 200 204 207 210 209 206 205 201 199 195 191 190 188 186 184 181 179 181 183 187 188 190 188 183 186 170 162 181 176 175 176 175 175 173 168 151 120 123 140 148 142 141 143 148 155 148 133 142 137 106 104 100 103 117 129 137 95 124 144 83 94 182 209 195 156 163 260 231 196 225 241 240 246 251 249 248 248 249 252 253 254 252 251 251
179 185 192 195 195 197 199 202 202 201 199 197 195 191 186 184 182 181 180 179 180 180 181 185 186 186 182 180 192 188 175 172 179 182 181 181 180 182 178 156 138 133 137 150 139 131 136 145 155 143 133 136 125 123 119 90 106 123 92 310 148 186 202 105 77 226 209 206 156 161 266 238 204 226 240 245 251 256 259 259 257 255 255 255 255 255 254 253
180 184 189 191 193 193 192 192 196 197 195 194 192 189 185 181 180 180 178 177 179 178 180 181 181 182 180 173 185 194 197 188 185 187 187 187 186 182 177 161 144 137 135 137 135 127 124 134 142 135 129 125 118 124 115 69 73 109 99 254 173 221 178 103 73 243 211 188 160 187 258 259 241 233 235 250 255 260 265 264 264 261 257 254 255 256 255 254
182 185 186 188 190 190 191 190 191 193 191 189 188 186 183 179 178 177 175 176 175 174 176 176 177 176 172 175 185 191 195 194 190 191 191 190 191 185 169 160 151 142 136 132 131 123 119 126 129 117 111 123 130 132 117 83 64 46 226 187 144 238 173 94 68 335 268 168 168 200 249 266 277 272 244 252 251 261 268 270 271 267 262 259 258 258 256 254
185 185 187 189 190 191 192 192 192 191 187 183 181 179 178 176 174 173 173 171 170 171 170 171 177 176 168 180 193 196 196 195 191 191 194 191 191 189 171 158 151 143 138 135 127 124 128 127 117 108 111 129 141 155 143 154 166 114 251 211 157 220 233 121 105 48 346 35 195 223 262 269 272 286 250 228 234 292 294 285 281 276 273 268 264 260 255 251
191 190 189 188 191 193 191 192 193 190 185 179 175 171 168 169 167 168 168 166 165 164 166 169 172 182 205 195 193 201 199 197 192 189 192 192 188 185 178 162 152 148 142 138 134 131 132 124 119 115 114 126 150 179 174 214 218 179 225 234 193 227 246 242 133 86 350 289 227 227 245 257 260 270 267 254 265 288 291 284 284 283 279 275 270 263 255 251
188 190 191 188 190 190 190 191 188 187 184 175 171 167 163 162 161 162 161 161 156 151 162 167 164 181 221 198 196 204 199 193 189 188 187 188 184 179 182 170 157 152 142 141 139 126 117 111 123 131 127 144 164 192 201 223 216 191 197 203 224 224 231 272 259 93 353 261 239 230 239 256 261 266 269 267 269 276 275 276 279 280 278 274 270 264 258 256
169 182 184 186 187 187 193 191 186 186 179 172 169 164 160 152 149 156 162 162 157 151 170 181 179 182 188 190 194 194 191 187 184 185 183 183 182 177 178 172 165 157 148 164 145 96 105 107 128 182 189 186 190 205 206 158 124 147 163 194 219 227 230 252 289 36 350 253 247 246 251 261 265 266 269 271 271 270 271 273 274 275 276 273 269 266 262 260
325 316 173 174 176 180 190 192 191 188 178 172 168 160 153 147 138 159 178 176 179 183 181 185 190 184 77 175 194 184 172 180 183 182 182 183 178 173 171 161 158 155 151 186 127 82 112 181 199 211 209 192 188 182 118 88 87 111 126 189 216 245 254 208 91 33 11 265 255 250 265 269 268 269 269 272 274 269 266 265 267 271 273 272 270 268 266 264
262 305 317 173 162 165 180 188 190 189 183 175 168 164 163 169 164 169 181 189 201 203 193 178 192 198 142 133 179 182 168 170 182 183 184 181 174 174 173 160 159 170 124 88 102 92 148 217 225 219 105 120 142 118 109 112 98 120 170 219 227 238 249 145 62 28 82 265 269 301 290 276 268 268 268 269 269 264 261 258 262 266 269 270 270 270 269 268
212 252 304 308 203 149 161 182 187 185 185 179 175 176 181 184 179 156 168 187 206 211 214 200 198 207 209 181 169 180 172 163 181 186 183 178 178 181 173 168 182 175 124 112 128 126 203 228 233 103 94 91 99 127 142 137 136 153 177 229 245 237 242 149 63 33 91 247 289 3 309 285 278 271 264 260 257 261 263 259 262 265 266 267 268 269 270 271
202 199 237 287 290 202 146 169 185 183 182 181 180 180 173 174 176 167 164 155 198 213 219 216 216 216 214 212 201 189 180 175 180 187 187 181 181 186 174 171 176 137 151 183 184 176 197 237 2 107 135 124 106 151 156 142 179 198 199 220 237 184 228 245 82 63 105 245 307 334 304 287 282 271 261 253 248 259 267 266 267 267 265 265 266 268 269 270
212 216 212 229 267 272 229 144 172 181 183 182 182 181 169 164 169 168 150 110 253 220 218 219 221 225 221 217 212 200 196 200 188 189 192 185 178 182 176 157 138 151 180 193 196 201 187 51 91 125 148 143 134 162 175 185 210 219 217 225 239 207 207 258 36 336 216 152 312 307 289 277 276 274 270 252 236 257 267 272 274 269 265 267 269 269 268 268
211 223 229 216 233 258 277 57 124 177 188 185 187 184 176 167 161 158 144 91 283 216 221 219 217 228 223 217 211 197 200 212 209 198 193 189 181 167 151 144 163 191 180 154 178 229 209 109 134 132 103 129 146 171 194 203 216 226 219 228 244 245 168 194 53 324 262 203 47 327 285 270 295 283 271 252 242 259 259 260 269 270 267 267 269 269 270 270
223 218 220 224 225 228 248 271 89 153 183 186 192 186 176 165 150 151 140 49 275 186 182 201 201 212 210 206 191 179 202 222 211 202 189 189 187 173 151 142 166 195 147 136 177 254 162 127 139 142 145 143 163 211 204 198 218 234 218 231 239 223 146 187 169 259 274 291 35 1 291 289 303 287 278 267 263 267 261 250 258 264 267 267 270 272 273 273
240 224 218 224 226 217 219 218 173 132 132 173 194 185 173 158 146 150 148 313 263 173 148 174 183 190 191 182 174 175 204 175 177 188 184 185 187 186 185 161 144 139 136 143 206 213 128 147 150 142 148 150 183 219 189 186 206 210 35 306 189 176 187 188 184 228 280 338 264 181 247 269 279 281 290 16 273 272 267 260 256 256 262 268 274 276 272 268
226 221 221 224 227 225 214 213 214 165 107 135 182 175 167 158 149 147 173 253 226 137 142 163 165 178 177 169 171 167 126 144 153 177 179 182 182 183 202 187 166 143 148 181 211 194 115 173 182 161 159 178 186 187 165 181 198 4 22 54 117 135 142 139 159 202 32 320 257 168 173 248 257 253 249 64 283 274 264 262 261 253 256 267 274 268 253 243
212 218 226 225 226 227 222 224 227 204 138 77 162 166 160 157 150 121 164 227 158 118 133 157 159 167 160 160 169 141 120 139 104 160 168 175 178 175 183 178 151 113 122 236 239 43 54 183 195 177 181 189 145 38 173 194 179 133 144 100 89 82 76 91 131 118 132 272 246 164 177 250 270 230 204 138 265 266 262 259 267 280 283 275 261 228 209 189
210 218 222 218 218 221 224 230 231 224 215 116 162 165 156 154 154 142 182 217 181 107 105 150 163 160 152 154 167 93 114 67 103 137 147 161 170 154 123 139 129 114 111 337 324 65 54 82 170 204 211 132 105 64 20 26 123 143 151 106 94 83 66 72 41 41 265 261 223 150 184 249 289 214 184 179 224 261 269 266 274 306 306 276 214 193 184 163
213 213 209 207 213 217 224 229 227 226 224 203 170 168 159 142 155 187 185 128 9 136 126 144 146 155 161 161 167 159 126 63 138 148 146 153 161 137 127 135 123 127 173 240 208 74 57 152 155 196 158 115 107 81 46 55 128 149 159 136 126 110 116 151 86 121 252 246 83 31 319 261 257 221 154 286 291 277 279 289 297 313 298 259 183 178 175 169
218 211 200 198 207 214 222 223 218 218 220 206 180 175 168 143 218 221 185 90 138 181 150 156 161 167 170 161 143 152 135 121 165 172 156 156 172 168 178 188 165 168 226 213 190 103 203 203 122 117 153 161 151 103 75 66 206 218 166 161 192 219 201 240 214 174 244 240 73 342 332 249 253 267 291 277 265 249 240 255 268 276 277 269 237 202 194 202
212 211 205 197 199 209 215 213 207 207 214 209 189 169 133 182 196 217 201 155 162 185 92 99 104 153 164 160 154 149 126 150 169 182 157 158 191 193 214 238 179 202 241 185 167 169 207 225 138 150 175 196 193 160 150 177 198 200 180 174 196 196 209 235 201 223 273 259 52 342 273 246 272 288 270 261 266 267 243 243 251 256 263 266 259 249 248 250
208 206 210 203 200 205 206 207 203 199 204 199 180 125 115 205 204 211 207 188 48 31 46 88 107 132 168 172 166 162 159 174 164 163 159 163 191 206 216 227 214 263 60 155 183 186 218 247 177 171 161 180 199 206 167 151 171 198 191 181 205 196 212 229 201 234 267 91 76 335 239 229 251 333 266 259 281 292 275 248 245 249 254 259 262 261 260 259
212 207 206 205 205 205 206 207 197 195 189 166 143 121 192 207 212 211 207 172 81 78 44 60 114 136 185 275 8 192 215 229 161 157 170 177 195 201 198 201 199 190 156 194 206 168 230 265 168 148 139 167 186 202 135 129 164 198 55 215 233 216 188 239 327 189 50 4 209 200 249 242 243 301 286 267 274 281 274 259 246 248 249 252 259 262 262 262
219 215 209 206 204 203 207 205 195 198 179 147 117 192 207 221 225 197 205 135 129 128 117 105 116 142 184 203 217 217 269 68 155 176 194 200 234 212 199 205 194 189 187 191 181 145 216 282 81 44 149 173 185 158 153 171 175 160 170 199 230 345 98 139 198 78 78 267 241 182 252 269 281 281 262 249 257 258 258 260 255 256 252 248 252 256 260 263
223 223 220 210 201 200 204 202 197 194 174 150 139 202 197 243 230 203 4 114 119 128 147 173 188 168 180 189 196 194 194 141 161 193 192 178 241 210 201 229 198 194 203 203 213 211 211 264 63 94 186 192 346 73 116 346 94 143 190 188 146 21 35 190 226 168 178 246 252 195 237 259 272 270 229 182 244 252 254 258 260 262 260 253 252 253 250 243
228 232 233 216 199 195 195 196 195 187 172 156 198 206 186 208 203 190 166 136 112 88 165 204 200 172 188 195 188 173 182 180 169 190 186 171 226 196 182 208 200 201 211 213 233 268 201 237 220 70 251 123 81 161 162 103 51 59 222 167 129 216 205 189 212 216 207 227 242 215 229 247 243 246 258 224 227 245 255 249 249 258 257 253 256 257 251 239
230 230 239 221 202 191 185 189 191 182 171 173 214 208 196 192 186 186 183 166 117 107 162 241 235 7 193 184 156 154 183 188 164 178 192 183 212 188 179 195 201 203 203 195 197 104 169 231 232 79 313 78 122 210 200 171 109 26 351 161 335 262 212 185 188 213 223 219 228 230 224 238 233 226 243 249 239 229 239 240 238 250 253 256 261 265 265 250
199 200 223 201 192 186 178 184 188 179 173 209 211 193 173 171 177 190 191 183 153 167 194 215 203 262 289 131 34 163 197 207 170 186 207 187 203 205 187 193 181 177 188 184 195 183 133 222 229 108 342 207 186 208 204 181 163 169 194 184 191 213 246 272 231 187 238 226 222 240 248 255 249 195 207 241 246 232 235 241 242 250 257 264 270 265 249 208
171 189 209 178 177 177 173 177 186 183 192 226 221 221 189 163 164 185 190 191 195 191 187 187 188 199 201 203 251 150 166 240 193 209 227 196 213 227 192 195 171 122 148 175 197 204 176 202 205 157 179 205 199 204 227 201 181 184 194 191 197 190 159 216 224 177 260 255 224 241 261 266 267 145 196 230 241 246 239 235 248 257 260 269 272 240 195 175
172 185 186 171 172 171 169 174 190 192 213 221 216 207 175 154 159 175 181 190 202 195 169 185 186 188 191 201 211 168 131 217 210 225 257 225 224 227 189 193 178 151 145 163 197 193 161 164 206 193 196 205 178 44 3 295 268 247 233 210 207 197 184 208 219 172 165 206 261 305 270 269 266 139 164 235 262 299 271 234 243 252 259 271 255 206 188 180
189 194 172 165 172 173 171 179 200 196 221 225 214 175 170 170 165 172 178 188 195 181 180 196 188 192 197 197 202 188 171 198 200 209 254 270 246 245 229 188 176 162 156 143 188 168 126 139 219 219 215 123 56 70 81 357 297 244 250 229 212 220 213 220 219 137 195 178 189 224 236 266 271 142 129 266 276 283 266 242 242 250 261 270 249 211 201 190
191 201 186 169 173 178 180 191 196 199 220 220 213 204 202 202 172 172 182 190 189 168 173 195 201 209 215 188 192 190 183 194 206 211 232 256 250 254 221 194 181 177 194 198 162 166 164 192 210 211 230 204 185 202 201 199 199 227 245 200 196 217 196 98 91 188 235 200 199 223 232 253 265 118 113 233 248 261 251 239 241 249 256 261 250 224 214 203
174 202 209 196 189 191 203 230 192 205 215 207 209 215 215 212 189 194 197 191 187 178 178 198 194 190 193 181 178 185 186 197 209 210 222 237 242 5 210 201 192 198 215 220 155 167 178 207 187 196 225 219 213 220 205 189 183 213 245 203 200 204 185 168 188 202 223 215 206 221 235 250 259 240 161 198 214 242 248 243 244 248 252 255 249 230 218 212
172 197 212 207 209 217 236 247 225 215 210 203 209 219 219 220 201 198 204 201 194 191 194 199 183 182 190 195 202 208 205 213 216 208 217 224 218 49 68 200 200 210 225 229 171 161 152 278 207 208 227 228 238 248 183 127 156 191 217 213 206 205 196 192 209 211 219 229 226 221 224 245 257 256 251 239 210 214 242 244 244 248 251 252 246 231 222 222
190 204 192 185 206 223 236 236 225 219 201 196 196 206 215 220 218 193 200 208 200 196 206 204 172 186 196 198 211 221 215 219 219 222 236 238 228 280 14 196 211 221 237 237 186 158 105 257 228 230 239 242 256 260 213 147 185 204 211 212 206 201 198 199 217 222 217 228 239 225 219 235 251 259 261 255 229 204 224 236 241 247 250 250 250 245 235 230
200 217 206 192 184 209 219 215 207 206 202 192 196 211 212 216 221 208 199 209 206 198 207 214 195 201 201 193 205 218 210 215 218 221 236 240 236 251 278 277 233 226 225 212 185 159 141 240 234 240 251 254 262 266 249 188 208 216 214 218 209 194 191 200 217 223 219 223 234 233 232 236 243 252 257 254 242 227 231 236 241 248 252 253 256 258 253 243
204 220 211 203 204 237 221 203 187 195 207 196 199 219 212 212 219 213 189 195 211 202 203 215 212 208 208 205 210 217 209 209 219 221 226 231 230 235 244 245 240 219 200 186 182 168 164 232 240 241 258 263 262 265 260 236 236 244 234 233 226 204 197 203 214 220 222 226 230 238 245 245 239 241 250 257 260 257 249 242 241 246 253 257 260 263 262 257
204 205 191 191 205 220 208 189 173 185 205 204 211 220 208 213 218 208 185 189 205 201 201 219 224 209 208 216 220 226 219 209 219 224 217 221 225 218 229 240 237 218 181 173 195 187 184 221 242 230 251 261 258 259 260 250 241 247 245 240 238 225 211 213 220 222 226 233 238 243 250 254 247 242 255 269 269 263 251 240 236 242 247 250 255 259 259 259
207 203 192 178 197 198 192 172 165 177 198 202 210 210 203 213 213 202 203 208 213 212 201 214 226 218 213 221 222 229 230 222 230 235 227 226 225 213 211 213 205 195 172 170 156 167 197 216 116 168 229 249 249 250 254 254 243 255 258 243 228 224 217 216 222 226 228 234 240 242 245 253 254 246 255 265 260 240 233 232 234 242 245 243 247 251 253 252
207 202 204 209 211 197 194 174 166 192 204 201 210 212 200 207 205 199 220 219 219 232 229 223 233 230 223 229 229 232 236 237 245 249 249 254 252 242 238 232 221 210 180 171 175 172 182 184 187 200 218 244 249 249 253 259 252 249 248 239 231 229 226 223 227 230 229 227 229 235 233 240 253 254 249 252 244 222 233 236 236 243 246 245 245 246 247 248
Height
1522 1523 1524 1526 1527 1528 1529 1530 1531 1532 1533 1533 1534 1535 1535 1536 1536 1537 1538 1538 1539 1540 1540 1541 1542 1542 1543 1543 1544 1544 1545 1545 1545 1546 1546 1546 1547 1547 1548 1548 1549 1549 1550 1550 1551 1551 1551 1552 1552 1552 1552 1553 1554 1554 1555 1555 1556 1557 1558 1562 1562 1564 1564 1561 1562 1562 1561 1561 1563 1565 1566 1567 1567 1569 1569 1569 1570 1570 1570 1570 1570 1570 1571 1571 1571 1571 1572 1572
1522 1523 1524 1525 1526 1527 1528 1529 1530 1531 1532 1533 1533 1534 1534 1535 1536 1537 1537 1538 1539 1539 1540 1541 1541 1542 1543 1543 1544 1544 1544 1545 1545 1545 1546 1546 1546 1547 1548 1548 1549 1549 1550 1550 1550 1551 1551 1551 1552 1552 1552 1553 1554 1555 1555 1556 1557 1558 1560 1562 1561 1560 1560 1559 1559 1560 1561 1561 1562 1564 1565 1566 1567 1568 1569 1569 1568 1569 1569 1569 1569 1570 1570 1570 1570 1571 1571 1571
1521 1522 1523 1524 1526 1527 1528 1528 1529 1530 1531 1532 1532 1533 1534 1534 1535 1536 1537 1538 1538 1539 1540 1540 1541 1542 1542 1543 1543 1544 1544 1544 1545 1545 1545 1546 1546 1547 1548 1548 1549 1549 1550 1550 1550 1550 1551 1551 1551 1552 1552 1553 1555 1555 1555 1556 1557 1558 1560 1560 1558 1558 1559 1560 1560 1561 1562 1562 1562 1564 1565 1566 1567 1567 1568 1568 1567 1568 1567 1567 1568 1568 1568 1568 1569 1570 1570 1570
1521 1522 1523 1524 1525 1526 1527 1528 1529 1530 1530 1531 1532 1532 1533 1534 1535 1536 1537 1537 1538 1539 1539 1540 1541 1541 1542 1542 1543 1543 1544 1544 1544 1545 1545 1545 1546 1547 1547 1548 1548 1549 1549 1550 1550 1550 1550 1551 1551 1552 1552 1554 1555 1555 1556 1557 1557 1558 1559 1558 1558 1559 1559 1560 1561 1562 1562 1562 1563 1564 1565 1566 1566 1567 1567 1567 1567 1566 1564 1564 1565 1566 1566 1567 1568 1568 1569 1569
1520 1522 1523 1524 1525 1526 1527 1527 1528 1529 1530 1530 1531 1532 1533 1534 1534 1535 1536 1537 1538 1538 1539 1540 1540 1541 1542 1542 1543 1543 1543 1544 1543 1544 1545 1545 1546 1546 1547 1548 1548 1549 1549 1550 1550 1550 1550 1550 1551 1551 1552 1554 1555 1555 1556 1557 1557 1558 1560 1560 1560 1561 1560 1561 1562 1562 1563 1563 1564 1564 1565 1565 1566 1566 1566 1566 1565 1562 1562 1563 1564 1565 1565 1566 1566 1567 1567 1568
1519 1521 1522 1523 1524 1525 1526 1527 1527 1528 1529 1530 1530 1531 1532 1533 1534 1535 1536 1537 1537 1538 1539 1539 1540 1541 1541 1542 1542 1543 1543 1543 1543 1544 1544 1545 1545 1546 1547 1548 1548 1549 1549 1549 1549 1549 1550 1550 1551 1551 1552 1554 1555 1555 1556 1558 1557 1557 1560 1562 1562 1561 1561 1561 1562 1562 1563 1564 1564 1564 1564 1565 1566 1565 1565 1564 1562 1560 1561 1562 1563 1563 1564 1564 1564 1565 1565 1566
1518 1520 1521 1523 1524 1524 1525 1526 1527 1528 1528 1529 1529 1530 1531 1532 1533 1534 1535 1536 1537 1537 1538 1539 1540 1540 1541 1541 1542 1542 1542 1542 1543 1543 1544 1545 1545 1546 1547 1548 1548 1548 1549 1549 1549 1549 1549 1550 1550 1551 1552 1554 1555 1556 1557 1558 1558 1557 1559 1562 1562 1562 1562 1562 1562 1562 1563 1564 1564 1564 1564 1565 1565 1564 1564 1561 1559 1560 1561 1561 1562 1562 1563 1563 1563 1563 1564 1564
1517 1519 1520 1522 1523 1523 1524 1525 1526 1527 1527 1528 1529 1529 1530 1531 1532 1533 1534 1535 1536 1537 1537 1538 1539 1540 1540 1541 1542 1542 1542 1543 1543 1543 1544 1545 1545 1546 1547 1548 1548 1548 1548 1548 1549 1549 1549 1550 1550 1551 1552 1554 1555 1556 1557 1558 1558 1558 1559 1562 1562 1563 1563 1562 1562 1563 1563 1563 1564 1564 1564 1564 1564 1564 1563 1558 1557 1559 1560 1560 1560 1561 1561 1562 1562 1562 1562 1563
1515 1517 1519 1520 1521 1522 1523 1524 1525 1526 1526 1527 1528 1529 1529 1530 1531 1532 1533 1534 1535 1536 1537 1538 1538 1539 1540 1540 1541 1541 1542 1542 1543 1543 1544 1545 1546 1547 1547 1547 1548 1548 1548 1548 1548 1548 1549 1549 1550 1551 1552 1554 1555 1556 1557 1557 1558 1559 1560 1562 1562 1563 1563 1563 1563 1563 1563 1563 1564 1564 1564 1564 1564 1564 1560 1555 1556 1557 1557 1558 1558 1559 1559 1559 1560 1560 1560 1561
1515 1516 1517 1519 1520 1521 1522 1523 1524 1524 1525 1526 1527 1528 1528 1529 1530 1531 1532 1533 1534 1535 1536 1537 1538 1539 1539 1540 1540 1541 1541 1542 1543 1543 1544 1545 1546 1547 1547 1547 1547 1548 1548 1548 1548 1548 1549 1549 1550 1551 1551 1553 1555 1557 1558 1557 1558 1560 1561 1561 1562 1562 1562 1563 1563 1563 1563 1564 1564 1564 1564 1563 1564 1565 1557 1552 1554 1555 1555 1556 1556 1557 1557 1557 1558 1558 1558 1559
1514 1515 1517 1518 1519 1520 1521 1522 1523 1523 1524 1525 1526 1527 1528 1528 1529 1530 1531 1532 1533 1534 1535 1536 1537 1538 1539 1540 1540 1540 1541 1542 1543 1544 1545 1545 1546 1547 1547 1547 1547 1548 1548 1548 1548 1549 1549 1549 1550 1550 1551 1553 1556 1557 1558 1559 1560 1561 1561 1561 1562 1562 1562 1563 1563 1563 1563 1564 1564 1564 1564 1564 1565 1563 1554 1551 1553 1553 1554 1554 1554 1555 1554 1555 1555 1555 1556 1556
1513 1514 1516 1517 1518 1519 1520 1521 1522 1523 1523 1524 1525 1526 1527 1528 1528 1529 1530 1532 1533 1534 1535 1536 1537 1538 1539 1540 1540 1541 1541 1542 1543 1544 1545 1545 1546 1547 1547 1547 1548 1548 1548 1549 1549 1549 1549 1549 1550 1550 1551 1553 1555 1557 1559 1560 1561 1561 1561 1561 1561 1562 1562 1563 1563 1563 1563 1563 1564 1565 1564 1560 1560 1557 1550 1551 1552 1552 1553 1553 1553 1553 1553 1553 1553 1553 1553 1553
1512 1514 1515 1516 1517 1518 1519 1520 1521 1522 1522 1523 1524 1525 1526 1527 1528 1529 1530 1531 1532 1534 1535 1536 1537 1538 1538 1539 1540 1541 1541 1542 1543 1544 1545 1545 1546 1547 1547 1547 1548 1548 1549 1549 1549 1549 1549 1550 1550 1550 1551 1553 1555 1557 1559 1561 1561 1561 1562 1561 1561 1561 1561 1562 1564 1563 1563 1563 1563 1565 1563 1554 1550 1550 1549 1550 1551 1551 1551 1551 1551 1551 1551 1551 1551 1550 1550 1551
1512 1513 1514 1515 1516 1517 1518 1519 1520 1521 1522 1523 1523 1524 1525 1526 1527 1528 1530 1531 1532 1533 1534 1535 1537 1537 1538 1539 1540 1540 1541 1542 1542 1543 1544 1545 1546 1547 1547 1547 1548 1548 1549 1549 1549 1549 1549 1550 1550 1551 1552 1554 1556 1558 1559 1561 1561 1562 1563 1563 1564 1563 1560 1561 1564 1563 1562 1563 1562 1564 1563 1552 1546 1548 1548 1549 1549 1550 1550 1549 1549 1549 1548 1548 1548 1548 1548 1548
1512 1512 1513 1514 1515 1517 1517 1518 1519 1520 1521 1522 1523 1524 1525 1526 1527 1528 1529 1530 1532 1533 1534 1535 1536 1537 1538 1538 1539 1539 1540 1541 1542 1543 1544 1545 1546 1546 1547 1547 1548 1548 1549 1549 1549 1549 1550 1550 1551 1552 1554 1555 1556 1558 1559 1561 1562 1563 1564 1564 1567 1565 1559 1560 1563 1563 1562 1562 1562 1563 1561 1552 1546 1546 1546 1547 1548 1549 1548 1547 1547 1546 1546 1546 1546 1546 1545 1545
1512 1512 1513 1514 1515 1516 1517 1518 1519 1520 1521 1522 1523 1523 1525 1525 1527 1528 1529 1530 1531 1532 1534 1535 1536 1537 1537 1537 1538 1539 1539 1540 1541 1542 1543 1544 1546 1546 1547 1547 1548 1548 1549 1549 1549 1550 1550 1550 1552 1553 1555 1556 1556 1556 1558 1562 1563 1564 1564 1563 1566 1565 1560 1559 1562 1564 1563 1562 1562 1561 1558 1551 1546 1545 1545 1546 1546 1547 1547 1546 1545 1544 1544 1544 1544 1543 1542 1542
1511 1512 1513 1514 1515 1516 1517 1518 1518 1520 1520 1521 1522 1523 1524 1525 1526 1527 1528 1530 1531 1532 1533 1534 1535 1536 1536 1537 1537 1537 1538 1539 1540 1542 1543 1544 1545 1546 1547 1547 1548 1549 1549 1550 1550 1550 1550 1551 1553 1554 1555 1556 1556 1556 1561 1566 1563 1563 1564 1563 1566 1567 1563 1560 1560 1563 1564 1563 1561 1560 1559 1552 1546 1545 1545 1545 1545 1545 1546 1544 1543 1542 1542 1542 1541 1541 1540 1539
1511 1512 1513 1514 1514 1516 1516 1517 1518 1519 1520 1521 1522 1523 1524 1525 1526 1527 1528 1529 1530 1532 1533 1534 1535 1536 1536 1535 1535 1536 1536 1538 1539 1541 1542 1544 1544 1546 1546 1547 1548 1549 1549 1550 1550 1550 1551 1552 1553 1554 1555 1557 1557 1556 1560 1563 1558 1559 1562 1562 1565 1567 1567 1563 1560 1562 1564 1563 1561 1560 1558 1552 1546 1545 1544 1543 1544 1543 1543 1542 1540 1540 1539 1539 1538 1537 1537 1536
1511 1511 1512 1513 1514 1515 1516 1517 1518 1519 1520 1521 1522 1523 1524 1525 1526 1527 1528 1529 1530 1531 1531 1532 1532 1533 1533 1532 1533 1535 1536 1537 1539 1540 1541 1543 1544 1545 1546 1547 1548 1548 1549 1549 1550 1551 1551 1552 1554 1555 1555 1555 1554 1552 1554 1556 1554 1556 1559 1559 1561 1562 1563 1563 1561 1563 1565 1563 1560 1558 1554 1549 1546 1543 1541 1541 1541 1541 1539 1538 1537 1536 1535 1535 1534 1533 1533 1533
1510 1511 1511 1512 1513 1514 1515 1517 1518 1519 1520 1521 1521 1522 1523 1525 1526 1527 1528 1528 1529 1529 1529 1529 1530 1531 1531 1531 1532 1534 1535 1537 1538 1539 1541 1542 1543 1544 1546 1547 1547 1549 1549 1549 1550 1552 1552 1553 1553 1552 1551 1550 1552 1552 1554 1557 1557 1557 1559 1561 1562 1562 1559 1559 1562 1565 1566 1562 1556 1554 1553 1548 1545 1542 1539 1539 1538 1537 1536 1534 1533 1532 1531 1530 1529 1529 1528 1528
1511 1511 1511 1512 1513 1514 1514 1516 1517 1518 1519 1520 1521 1522 1522 1523 1524 1525 1526 1527 1528 1528 1528 1529 1530 1530 1531 1531 1532 1533 1535 1536 1537 1539 1540 1541 1542 1544 1545 1546 1547 1548 1550 1551 1551 1552 1553 1554 1551 1548 1549 1551 1554 1556 1557 1559 1560 1559 1560 1561 1563 1564 1560 1560 1564 1565 1566 1563 1555 1554 1554 1546 1542 1539 1536 1536 1535 1531 1530 1529 1528 1527 1527 1526 1524 1524 1524 1524
1511 1511 1512 1512 1512 1513 1514 1515 1516 1517 1519 1520 1520 1521 1521 1522 1522 1523 1524 1525 1526 1527 1528 1528 1529 1530 1530 1531 1532 1533 1534 1535 1537 1538 1539 1541 1542 1542 1544 1545 1546 1547 1551 1551 1551 1554 1555 1553 1549 1550 1553 1555 1558 1559 1558 1559 1561 1560 1561 1563 1562 1562 1560 1561 1565 1565 1566 1563 1555 1557 1556 1543 1536 1535 1531 1531 1530 1525 1524 1524 1523 1523 1523 1521 1520 1519 1519 1520
1510 1511 1512 1512 1512 1513 1514 1514 1515 1516 1518 1519 1520 1521 1521 1521 1522 1523 1523 1524 1525 1526 1526 1527 1528 1528 1529 1530 1531 1532 1533 1534 1535 1536 1538 1539 1541 1542 1543 1544 1545 1548 1551 1549 1549 1554 1555 1552 1551 1554 1555 1556 1559 1562 1560 1560 1561 1560 1561 1562 1560 1561 1561 1558 1562 1566 1566 1564 1560 1561 1559 1543 1530 1528 1524 1524 1524 1521 1520 1520 1519 1519 1517 1515 1515 1515 1515 1515
1509 1510 1512 1512 1512 1513 1513 1515 1515 1516 1517 1518 1519 1520 1521 1521 1522 1523 1523 1524 1524 1524 1524 1525 1526 1526 1527 1529 1530 1531 1532 1533 1534 1535 1537 1538 1540 1542 1542 1544 1546 1548 1549 1547 1548 1550 1550 1552 1554 1556 1555 1555 1559 1562 1561 1559 1559 1561 1561 1559 1557 1559 1561 1558 1561 1565 1564 1565 1565 1562 1556 1539 1526 1525 1521 1519 1521 1519 1517 1518 1515 1513 1512 1511 1511 1511 1511 1511
1508 1510 1511 1511 1512 1512 1514 1515 1514 1516 1516 1517 1518 1519 1520 1521 1521 1522 1523 1525 1525 1523 1523 1523 1524 1524 1525 1527 1528 1530 1532 1532 1533 1534 1535 1537 1539 1541 1542 1544 1546 1546 1547 1549 1551 1549 1549 1553 1555 1556 1558 1557 1559 1560 1560 1558 1557 1559 1560 1557 1554 1555 1559 1562 1564 1564 1560 1561 1565 1564 1556 1537 1524 1524 1519 1515 1517 1515 1514 1515 1512 1509 1508 1509 1508 1507 1507 1507
1507 1509 1510 1511 1512 1512 1514 1514 1515 1516 1515 1517 1518 1518 1520 1520 1521 1522 1522 1528 1527 1520 1521 1522 1522 1523 1523 1525 1527 1530 1532 1531 1531 1533 1534 1537 1538 1539 1542 1544 1545 1546 1548 1551 1552 1550 1550 1554 1555 1555 1557 1559 1560 1559 1558 1557 1557 1558 1558 1557 1557 1557 1560 1563 1564 1563 1560 1559 1565 1568 1562 1549 1533 1519 1512 1514 1515 1512 1512 1512 1508 1505 1504 1505 1505 1504 1504 1504
1505 1507 1508 1510 1511 1512 1514 1514 1515 1515 1515 1517 1516 1518 1520 1519 1522 1521 1522 1535 1530 1514 1516 1520 1519 1520 1521 1523 1525 1528 1530 1528 1529 1533 1533 1535 1537 1538 1540 1542 1544 1546 1548 1551 1552 1550 1550 1555 1556 1555 1556 1559 1559 1557 1556 1556 1557 1558 1560 1561 1560 1560 1562 1563 1563 1563 1562 1563 1565 1566 1564 1563 1549 1522 1511 1517 1517 1511 1510 1507 1503 1501 1501 1502 1502 1502 1501 1501
1504 1506 1507 1508 1510 1511 1513 1513 1514 1515 1515 1516 1515 1518 1519 1519 1522 1519 1525 1540 1527 1508 1512 1516 1517 1518 1520 1523 1524 1525 1527 1525 1528 1532 1533 1534 1537 1538 1539 1540 1542 1543 1546 1548 1548 1547 1549 1553 1554 1554 1555 1556 1554 1554 1554 1555 1556 1559 1564 1564 1562 1562 1563 1563 1563 1564 1567 1567 1563 1563 1565 1563 1546 1520 1513 1519 1517 1511 1506 1501 1498 1497 1498 1500 1500 1500 1500 1500
1501 1504 1505 1507 1508 1510 1511 1512 1513 1515 1515 1515 1516 1517 1518 1520 1521 1519 1531 1537 1516 1505 1511 1513 1515 1518 1519 1522 1524 1524 1525 1526 1527 1530 1532 1535 1536 1537 1538 1540 1541 1544 1547 1546 1545 1547 1550 1551 1552 1552 1552 1551 1552 1556 1557 1555 1556 1561 1565 1563 1563 1565 1565 1566 1565 1563 1568 1566 1558 1560 1562 1556 1535 1512 1511 1519 1516 1508 1500 1496 1495 1494 1496 1498 1498 1499 1499 1499
1500 1502 1504 1505 1506 1508 1510 1511 1513 1514 1515 1516 1516 1516 1518 1520 1519 1525 1540 1530 1507 1508 1513 1512 1515 1517 1518 1522 1524 1526 1526 1526 1527 1529 1533 1535 1536 1537 1537 1540 1542 1544 1547 1548 1547 1549 1551 1552 1552 1552 1551 1550 1554 1559 1560 1558 1558 1561 1562 1561 1563 1565 1564 1566 1565 1563 1565 1560 1555 1558 1557 1555 1538 1509 1502 1509 1507 1501 1496 1494 1494 1493 1495 1496 1497 1498 1497 1498
1499 1500 1502 1503 1504 1506 1508 1509 1511 1513 1515 1516 1516 1517 1518 1520 1520 1527 1533 1517 1505 1510 1512 1513 1516 1515 1516 1518 1521 1525 1526 1527 1528 1528 1531 1533 1535 1537 1537 1540 1543 1546 1549 1548 1549 1551 1552 1552 1552 1551 1551 1552 1554 1558 1561 1562 1560 1560 1558 1558 1562 1563 1565 1566 1566 1568 1565 1556 1559 1567 1565 1564 1545 1511 1499 1502 1501 1500 1498 1496 1494 1493 1495 1495 1496 1497 1496 1498
1498 1499 1500 1501 1502 1504 1506 1508 1510 1512 1514 1514 1516 1517 1516 1522 1525 1522 1516 1508 1506 1508 1507 1512 1516 1514 1515 1515 1518 1522 1524 1526 1528 1527 1529 1531 1533 1533 1533 1533 1536 1544 1547 1543 1546 1551 1549 1549 1550 1551 1551 1552 1551 1555 1564 1565 1562 1560 1556 1558 1561 1563 1567 1566 1565 1570 1564 1557 1566 1572 1570 1563 1535 1505 1501 1500 1497 1498 1498 1496 1495 1494 1494 1495 1496 1496 1495 1496
1496 1497 1498 1499 1500 1502 1504 1506 1508 1510 1511 1513 1516 1517 1516 1523 1523 1512 1505 1504 1505 1506 1507 1511 1514 1514 1515 1515 1518 1522 1522 1525 1527 1528 1529 1529 1531 1530 1529 1529 1529 1534 1537 1537 1544 1549 1547 1547 1550 1551 1550 1550 1546 1549 1558 1561 1561 1557 1552 1554 1557 1563 1571 1569 1569 1574 1565 1560 1570 1573 1568 1555 1524 1501 1497 1494 1490 1493 1494 1494 1494 1493 1493 1493 1494 1495 1494 1494
1495 1496 1497 1498 1499 1501 1502 1504 1506 1507 1510 1512 1515 1519 1521 1519 1511 1503 1502 1502 1504 1509 1510 1511 1514 1516 1516 1516 1518 1519 1521 1524 1526 1527 1529 1530 1533 1531 1529 1530 1530 1530 1534 1539 1541 1542 1544 1542 1541 1543 1542 1543 1542 1540 1543 1547 1553 1553 1547 1549 1551 1552 1556 1557 1560 1561 1556 1560 1572 1576 1565 1541 1516 1499 1492 1490 1490 1490 1491 1491 1492 1492 1491 1491 1490 1491 1491 1492
1493 1494 1495 1496 1498 1500 1501 1503 1505 1507 1509 1511 1516 1522 1521 1512 1504 1502 1502 1502 1506 1511 1512 1512 1514 1517 1518 1518 1519 1518 1518 1522 1526 1528 1529 1529 1528 1527 1525 1525 1528 1529 1532 1536 1536 1538 1542 1534 1531 1536 1536 1536 1538 1537 1538 1542 1550 1553 1551 1552 1550 1540 1540 1553 1564 1561 1560 1564 1566 1567 1552 1521 1503 1494 1488 1490 1489 1486 1487 1487 1489 1490 1489 1490 1488 1486 1487 1489
1491 1493 1494 1495 1496 1498 1500 1502 1504 1507 1507 1509 1518 1524 1517 1508 1505 1504 1501 1501 1505 1508 1511 1514 1514 1516 1520 1520 1520 1521 1519 1520 1526 1528 1528 1528 1525 1523 1521 1518 1520 1524 1523 1526 1530 1535 1538 1534 1534 1538 1536 1537 1538 1537 1539 1540 1544 1552 1553 1550 1546 1540 1539 1553 1570 1573 1572 1564 1549 1547 1538 1512 1501 1492 1482 1486 1486 1482 1484 1484 1485 1486 1485 1488 1486 1483 1485 1487
1490 1491 1492 1494 1496 1497 1499 1501 1503 1506 1506 1508 1516 1518 1513 1509 1506 1504 1502 1502 1504 1505 1507 1510 1510 1513 1517 1518 1519 1521 1519 1520 1525 1525 1525 1527 1523 1518 1518 1516 1515 1517 1515 1516 1522 1525 1527 1530 1536 1540 1538 1539 1540 1539 1540 1539 1539 1546 1549 1543 1541 1546 1544 1545 1556 1565 1568 1560 1544 1538 1530 1514 1508 1496 1480 1483 1486 1481 1482 1481 1481 1482 1481 1482 1481 1481 1485 1485
1489 1491 1491 1492 1495 1496 1498 1501 1503 1505 1506 1508 1510 1509 1507 1506 1503 1502 1504 1503 1503 1505 1506 1506 1506 1508 1512 1513 1515 1517 1518 1519 1523 1524 1522 1524 1518 1508 1511 1514 1512 1512 1512 1513 1519 1522 1523 1527 1535 1542 1541 1539 1540 1540 1541 1541 1541 1541 1541 1539 1540 1546 1547 1545 1549 1552 1554 1555 1544 1533 1527 1518 1509 1494 1480 1481 1483 1480 1480 1479 1479 1478 1477 1477 1476 1478 1482 1483
1489 1490 1490 1490 1493 1495 1497 1499 1501 1504 1506 1507 1506 1502 1500 1500 1499 1500 1502 1502 1503 1506 1508 1508 1507 1509 1510 1511 1512 1515 1516 1515 1518 1520 1518 1519 1514 1503 1503 1506 1507 1509 1511 1514 1518 1521 1523 1524 1531 1541 1542 1540 1541 1540 1537 1537 1542 1543 1540 1540 1542 1540 1539 1539 1541 1538 1536 1541 1537 1527 1522 1511 1493 1483 1479 1478 1477 1478 1477 1476 1476 1476 1475 1474 1475 1476 1478 1479
1488 1489 1488 1488 1490 1493 1496 1498 1500 1502 1503 1501 1498 1496 1495 1496 1498 1499 1499 1501 1502 1504 1507 1508 1509 1511 1512 1512 1513 1514 1514 1513 1515 1516 1513 1512 1510 1503 1501 1502 1503 1508 1511 1514 1517 1519 1523 1524 1526 1538 1544 1540 1536 1531 1526 1526 1533 1540 1539 1539 1541 1539 1539 1539 1535 1531 1529 1530 1531 1527 1519 1497 1475 1472 1476 1475 1474 1474 1474 1474 1475 1475 1473 1474 1475 1475 1476 1476
1487 1488 1486 1486 1488 1490 1494 1497 1498 1498 1498 1496 1493 1493 1494 1495 1496 1497 1498 1500 1501 1501 1503 1504 1506 1510 1513 1514 1514 1513 1514 1515 1515 1515 1511 1509 1506 1501 1499 1499 1501 1507 1511 1516 1517 1516 1520 1521 1523 1535 1540 1532 1524 1521 1521 1521 1521 1525 1526 1527 1527 1528 1535 1539 1534 1533 1534 1530 1528 1529 1521 1493 1469 1469 1473 1472 1473 1473 1473 1475 1474 1474 1474 1474 1475 1475 1475 1476
1486 1486 1485 1484 1487 1488 1491 1494 1494 1494 1495 1492 1490 1490 1492 1494 1495 1496 1498 1499 1499 1500 1501 1502 1502 1505 1508 1510 1511 1512 1515 1516 1516 1516 1512 1506 1502 1498 1498 1499 1500 1502 1506 1511 1512 1509 1513 1517 1520 1526 1527 1522 1521 1523 1526 1524 1521 1521 1521 1518 1516 1517 1522 1525 1526 1530 1536 1535 1530 1531 1527 1496 1467 1469 1475 1472 1474 1475 1475 1476 1475 1473 1473 1473 1474 1475 1475 1475
1484 1484 1483 1484 1485 1486 1489 1491 1492 1493 1490 1486 1487 1489 1491 1492 1493 1494 1495 1496 1498 1498 1500 1501 1500 1501 1502 1504 1506 1510 1513 1514 1515 1515 1511 1506 1502 1498 1498 1500 1501 1501 1503 1506 1508 1508 1513 1517 1518 1519 1518 1519 1523 1524 1525 1526 1525 1523 1519 1516 1518 1517 1515 1517 1522 1525 1527 1529 1528 1531 1531 1501 1469 1470 1477 1474 1476 1477 1475 1475 1474 1473 1472 1472 1474 1475 1474 1474
1482 1483 1482 1483 1484 1485 1486 1486 1486 1488 1486 1484 1487 1489 1489 1489 1490 1491 1492 1493 1495 1496 1498 1499 1499 1499 1500 1500 1502 1504 1507 1511 1512 1510 1508 1505 1501 1499 1499 1500 1501 1502 1501 1502 1503 1505 1511 1515 1516 1518 1520 1521 1524 1524 1524 1525 1525 1521 1514 1515 1517 1516 1518 1522 1526 1527 1524 1521 1518 1520 1519 1496 1470 1469 1476 1475 1476 1475 1473 1473 1473 1472 1472 1471 1473 1474 1474 1474
1481 1481 1481 1481 1481 1482 1482 1479 1480 1481 1482 1484 1487 1486 1486 1487 1488 1488 1489 1490 1492 1493 1495 1496 1496 1497 1498 1500 1501 1501 1502 1504 1505 1505 1505 1503 1500 1499 1499 1500 1501 1500 1499 1500 1500 1501 1506 1509 1510 1515 1518 1517 1515 1512 1509 1511 1518 1520 1515 1514 1514 1513 1516 1519 1521 1525 1522 1514 1511 1511 1505 1488 1470 1467 1472 1473 1474 1473 1471 1471 1471 1471 1470 1469 1470 1472 1472 1472
1478 1478 1478 1479 1479 1479 1478 1477 1478 1479 1479 1482 1486 1484 1484 1485 1485 1486 1488 1489 1490 1491 1492 1492 1494 1495 1497 1498 1500 1501 1500 1500 1500 1501 1502 1500 1499 1499 1499 1499 1500 1499 1499 1501 1501 1502 1506 1506 1504 1505 1504 1500 1495 1492 1491 1497 1508 1513 1510 1508 1509 1510 1511 1513 1515 1516 1513 1508 1505 1501 1496 1486 1472 1465 1467 1468 1469 1470 1469 1469 1469 1468 1468 1468 1468 1468 1469 1469
1474 1473 1472 1474 1476 1477 1477 1477 1477 1477 1476 1479 1481 1480 1481 1482 1483 1485 1487 1486 1487 1488 1490 1490 1492 1494 1495 1496 1498 1498 1498 1499 1500 1500 1498 1497 1498 1498 1499 1499 1499 1499 1500 1501 1501 1503 1506 1506 1503 1501 1497 1492 1486 1484 1487 1493 1497 1499 1499 1500 1504 1506 1509 1513 1512 1504 1502 1505 1500 1489 1486 1486 1476 1467 1463 1461 1463 1467 1467 1466 1467 1466 1466 1467 1466 1466 1466 1466
1470 1469 1467 1468 1470 1470 1471 1472 1472 1474 1475 1476 1477 1476 1478 1480 1481 1482 1483 1484 1484 1486 1488 1489 1489 1489 1489 1491 1494 1495 1496 1498 1499 1498 1496 1496 1497 1498 1499 1499 1498 1498 1498 1500 1500 1501 1505 1505 1501 1500 1498 1493 1488 1485 1487 1491 1491 1491 1492 1493 1496 1501 1506 1509 1505 1496 1494 1497 1490 1478 1477 1479 1475 1468 1459 1454 1457 1461 1462 1463 1465 1465 1465 1465 1464 1463 1463 1463
1466 1466 1465 1466 1466 1465 1465 1466 1469 1473 1474 1475 1476 1475 1475 1476 1477 1477 1479 1482 1484 1484 1485 1486 1485 1485 1486 1487 1490 1492 1493 1495 1496 1494 1494 1495 1496 1498 1499 1497 1496 1496 1496 1498 1499 1499 1503 1504 1500 1500 1501 1496 1491 1487 1487 1490 1492 1491 1491 1491 1492 1496 1499 1499 1495 1489 1485 1482 1478 1475 1473 1470 1466 1460 1453 1450 1455 1458 1459 1461 1462 1463 1464 1463 1462 1461 1460 1461
1462 1462 1463 1465 1465 1464 1464 1465 1468 1471 1472 1475 1476 1474 1473 1473 1473 1474 1475 1479 1481 1481 1482 1482 1481 1482 1484 1485 1487 1487 1486 1488 1490 1489 1490 1492 1493 1495 1495 1493 1492 1495 1496 1498 1499 1499 1501 1501 1499 1501 1504 1499 1491 1487 1485 1489 1493 1493 1492 1492 1492 1492 1493 1492 1487 1483 1482 1481 1478 1477 1476 1466 1455 1452 1452 1452 1454 1456 1457 1458 1459 1459 1460 1460 1459 1458 1458 1458
1458 1460 1461 1463 1464 1464 1464 1464 1465 1468 1470 1471 1471 1469 1469 1471 1471 1473 1474 1475 1477 1478 1479 1479 1478 1480 1482 1484 1485 1484 1483 1484 1485 1484 1485 1487 1488 1488 1489 1488 1488 1492 1496 1497 1499 1500 1502 1502 1501 1504 1507 1498 1488 1486 1487 1489 1494 1497 1494 1490 1487 1485 1484 1484 1483 1482 1482 1482 1480 1481 1478 1464 1449 1449 1454 1452 1451 1454 1454 1454 1455 1455 1454 1455 1455 1455 1456 1455
1456 1459 1460 1462 1462 1462 1463 1463 1464 1466 1465 1463 1463 1463 1466 1468 1470 1473 1475 1474 1474 1475 1476 1477 1478 1479 1481 1482 1482 1481 1482 1482 1482 1483 1483 1484 1484 1484 1485 1485 1484 1487 1491 1493 1495 1497 1498 1501 1502 1503 1503 1494 1484 1485 1489 1492 1498 1496 1484 1475 1471 1471 1473 1477 1480 1478 1474 1474 1475 1473 1466 1455 1447 1449 1451 1447 1448 1452 1451 1450 1452 1451 1450 1452 1451 1451 1451 1450